TimePDT,TemperatureF,Dew PointF,Humidity,Sea Level PressureIn,VisibilityMPH,Wind Direction,Wind SpeedMPH,Gust SpeedMPH,PrecipitationIn,Events,Conditions,WindDirDegrees,DateUTC
12:00 AM,12.2,10.4,92,30.03,10.0,NW,5.8,-,N/A,,Mostly Cloudy,310,2013-03-23 07:00:00
12:33 AM,12.2,10.4,92,30.03,10.0,NW,4.6,-,N/A,,Partly Cloudy,320,2013-03-23 07:33:00
12:53 AM,12.0,10.0,92,30.03,10.0,NNW,4.6,-,N/A,,Clear,330,2013-03-23 07:53:00
1:25 AM,12.2,10.4,92,30.04,10.0,NW,3.5,-,N/A,,Mostly Cloudy,310,2013-03-23 08:25:00
1:38 AM,12.2,10.4,92,30.05,10.0,Calm,Calm,-,N/A,,Overcast,0,2013-03-23 08:38:00
1:53 AM,14.0,12.0,92,30.26,8.0,WNW,4.6,-,N/A,,Overcast,300,2013-03-23 08:53:00
2:53 AM,12.9,10.9,92,30.27,10.0,Calm,Calm,-,N/A,,Overcast,0,2013-03-23 09:53:00
3:53 AM,12.9,10.9,92,30.28,10.0,NNW,3.5,-,N/A,,Overcast,330,2013-03-23 10:53:00
4:31 AM,12.2,10.4,92,30.06,-9999.0,North,-9999.0,-,N/A,,Unknown,0,2013-03-23 11:31:00
4:53 AM,-9999,-9999,N/A,30.07,-9999.0,North,-9999.0,-,N/A,,Unknown,0,2013-03-23 11:53:00
5:53 AM,-9999,-9999,N/A,30.07,-9999.0,North,-9999.0,-,N/A,,Unknown,0,2013-03-23 12:53:00
6:53 AM,-9999,-9999,N/A,30.08,-9999.0,North,-9999.0,-,N/A,,Unknown,0,2013-03-23 13:53:00
7:53 AM,-9999,-9999,N/A,30.09,-9999.0,North,-9999.0,-,N/A,,Unknown,0,2013-03-23 14:53:00
8:53 AM,-9999,-9999,N/A,30.10,-9999.0,North,-9999.0,-,N/A,,Unknown,0,2013-03-23 15:53:00
9:53 AM,-9999,-9999,N/A,30.11,-9999.0,North,-9999.0,-,N/A,,Unknown,0,2013-03-23 16:53:00
10:53 AM,-9999,-9999,N/A,30.11,-9999.0,North,-9999.0,-,N/A,,Unknown,0,2013-03-23 17:53:00
11:53 AM,-9999,-9999,N/A,30.11,-9999.0,North,-9999.0,-,N/A,,Unknown,0,2013-03-23 18:53:00
12:53 PM,-9999,-9999,N/A,30.11,-9999.0,North,-9999.0,-,N/A,,Unknown,0,2013-03-23 19:53:00
1:53 PM,-9999,-9999,N/A,30.10,-9999.0,North,-9999.0,-,N/A,,Unknown,0,2013-03-23 20:53:00
2:53 PM,-9999,-9999,N/A,30.09,-9999.0,North,-9999.0,-,N/A,,Unknown,0,2013-03-23 21:53:00
3:53 PM,-9999,-9999,N/A,30.09,-9999.0,North,-9999.0,-,N/A,,Unknown,0,2013-03-23 22:53:00
4:53 PM,-9999,-9999,N/A,30.09,-9999.0,North,-9999.0,-,N/A,,Unknown,0,2013-03-23 23:53:00
5:53 PM,-9999,-9999,N/A,30.09,-9999.0,North,-9999.0,-,N/A,,Unknown,0,2013-03-24 00:53:00
6:53 PM,-9999,-9999,N/A,30.10,-9999.0,North,-9999.0,-,N/A,,Unknown,0,2013-03-24 01:53:00
7:53 PM,-9999,-9999,N/A,30.10,-9999.0,North,-9999.0,-,N/A,,Unknown,0,2013-03-24 02:53:00
8:53 PM,-9999,-9999,N/A,30.11,-9999.0,North,-9999.0,-,N/A,,Unknown,0,2013-03-24 03:53:00
9:53 PM,-9999,-9999,N/A,30.11,-9999.0,North,-9999.0,-,N/A,,Unknown,0,2013-03-24 04:53:00
10:53 PM,-9999,-9999,N/A,30.11,-9999.0,North,-9999.0,-,N/A,,Unknown,0,2013-03-24 05:53:00
11:53 PM,-9999,-9999,N/A,30.11,-9999.0,North,-9999.0,-,N/A,,Unknown,0,2013-03-24 06:53:00